Mmabatho, South Africa

3:06 AM SAST on May 25, 2017 (GMT +0200)
Mmabatho

Weather History for FAMM - October, 2012

Change the Weather History Date:

Wednesday, October 17, 2012

  Actual Average Record
Temperature  
Mean Temperature 73 °F -  
Max Temperature 88 °F - - ()
Min Temperature 58 °F - - ()
Cooling Degree Days 8    
Growing Degree Days 23 (Base 50)    
Moisture  
Dew Point 49 °F    
Average Humidity 44    
Maximum Humidity 72    
Minimum Humidity 13    
Precipitation  
Precipitation 0.00 in - - ()
Sea Level Pressure  
Sea Level Pressure 29.94 in    
Wind  
Wind Speed 13 mph ()    
Max Wind Speed 21 mph    
Max Gust Speed 26 mph    
Visibility 10.2 miles    
Events      
T = Trace of Precipitation, MM = Missing Value Source: Averaged Metar Reports

Daily Weather History Graph

Daily Weather History Graph

Search for Another Location

Airport or City:

Trip Planner

Search our weather history database for the weather conditions in past years. The results will help you decide how hot, cold, wet, or windy it might be!

Date:

Astronomy

Oct. 17, 2012 Rise Set
Actual Time 5:41 AM SAST 6:25 PM SAST
Civil Twilight 5:17 AM SAST 6:49 PM SAST
Nautical Twilight 4:50 AM SAST 7:16 PM SAST
Astronomical Twilight 4:22 AM SAST 7:44 PM SAST
Moon 6:58 AM SAST (10/17) 8:45 PM SAST (10/17)
Length of Visible Light 13h 31m
Length of Day
12h 44m
Waxing Crescent, 5% of the Moon is Illuminated
Oct 17
Waxing Crescent
Oct 22
First Quarter
Oct 29
Full
Nov 7
Last Quarter
Nov 14
New

Hourly Weather History & Observations

Time (SAST) Temp. Dew Point Humidity Pressure Visibility Wind Dir Wind Speed Gust Speed Precip Events Conditions
12:00 AM 66.2 °F 44.6 °F 46% 29.98 in - East 10.4 mph - N/A   Unknown
1:00 AM 66.2 °F 44.6 °F 46% 29.98 in - ENE 13.8 mph - N/A   Unknown
2:00 AM 66 °F 47 °F 38%  in - ENE 16.1 mph - -  
2:00 AM 64.4 °F 46.4 °F 52% 29.95 in - ENE 15.0 mph - N/A   Unknown
3:00 AM 64.4 °F 48.2 °F 56% 29.95 in - NE 19.6 mph - N/A   Unknown
4:00 AM 62.6 °F 50.0 °F 63% 29.95 in - NE 20.7 mph - N/A   Unknown
5:00 AM 59 °F 50 °F 63%  in 19 mi NNE 17.3 mph - -   Scattered Clouds
5:00 AM 57.2 °F 48.2 °F 72% 29.98 in - NNE 17.3 mph - N/A   Clear
6:00 AM 59.0 °F 50.0 °F 72% 30.01 in - NNE 17.3 mph - N/A   Clear
7:00 AM 60.8 °F 48.2 °F 63% 30.01 in - NNE 16.1 mph - N/A   Clear
7:25 AM 64.4 °F 50.0 °F 59% 30.01 in - NNE 20.7 mph - N/A   Clear
8:00 AM 68 °F 52 °F 47%  in 19 mi NNE 19.6 mph - -   Scattered Clouds
8:00 AM 68.0 °F 51.8 °F 56% 30.01 in 6.2 mi NNE 18.4 mph - N/A   Partly Cloudy
9:00 AM 71.6 °F 51.8 °F 50% 30.01 in 6.2 mi NNE 19.6 mph - N/A   Partly Cloudy
10:00 AM 75.2 °F 51.8 °F 44% 30.01 in 6.2 mi North 17.3 mph - N/A   Partly Cloudy
11:00 AM 79 °F 50 °F 26%  in 19 mi North 18.4 mph - -   Scattered Clouds
11:00 AM 78.8 °F 50.0 °F 36% 29.98 in 6.2 mi North 17.3 mph - N/A   Partly Cloudy
12:00 PM 78.8 °F 50.0 °F 36% 29.95 in 6.2 mi NW 11.5 mph - N/A   Partly Cloudy
1:00 PM 84.2 °F 48.2 °F 29% 29.92 in 6.2 mi NW 10.4 mph 26.5 mph N/A   Partly Cloudy
2:00 PM 85 °F 49 °F 19%  in 19 mi NNW 9.2 mph - -   Partly Cloudy
2:00 PM 84.2 °F 48.2 °F 29% 29.89 in 6.2 mi NNW 8.1 mph - N/A   Scattered Clouds
3:00 PM 86.0 °F 48.2 °F 27% 29.86 in 6.2 mi NNW 10.4 mph 25.3 mph N/A   Scattered Clouds
4:00 PM 86.0 °F 41.0 °F 20% 29.83 in 6.2 mi NW 12.7 mph - N/A   Scattered Clouds
5:00 PM 86 °F 42 °F 13%  in 19 mi WNW 13.8 mph - -   Partly Cloudy
5:00 PM 86.0 °F 41.0 °F 20% 29.83 in 6.2 mi WNW 12.7 mph - N/A   Partly Cloudy
6:00 PM 80.6 °F 44.6 °F 28% 29.83 in 6.2 mi North 5.8 mph - N/A   Partly Cloudy
7:00 PM 77.0 °F 48.2 °F 36% 29.83 in 6.2 mi North 5.8 mph - N/A   Partly Cloudy
8:00 PM 76 °F 51 °F 31%  in 19 mi NNE 4.6 mph - -   Scattered Clouds
8:00 PM 75.2 °F 50.0 °F 41% 29.86 in 6.2 mi NNE 4.6 mph - N/A   Partly Cloudy
9:00 PM 73.4 °F 55.4 °F 53% 29.89 in - NNE 10.4 mph - N/A   Unknown
10:00 PM 71.6 °F 53.6 °F 53% 29.92 in - NNE 10.4 mph - N/A   Unknown
11:00 PM 69 °F 56 °F 53%  in - North 8.1 mph - -  
11:00 PM 68.0 °F 55.4 °F 64% 29.95 in - North 8.1 mph - N/A   Unknown